Date,TemperatureHighF,TemperatureAvgF,TemperatureLowF,DewpointHighF,DewpointAvgF,DewpointLowF,HumidityHigh,HumidityAvg,HumidityLow,PressureMaxIn,PressureMinIn,WindSpeedMaxMPH,WindSpeedAvgMPH,GustSpeedMaxMPH,PrecipitationSumIn
2012-1-1,49.7,25.4,11.8,24.1,15.6,7.9,86,69,36,30.69,30.52,6,1,7,0.00
2012-1-2,68.3,39.2,15.5,27.7,18.2,11.2,85,51,20,30.61,30.35,32,4,33,0.00
2012-1-3,65.8,45.4,23.7,23.5,18.7,14.3,71,36,17,30.43,30.25,17,2,19,0.00
2012-1-4,63.6,35.1,19.7,26.7,19.0,13.4,80,56,22,30.57,30.43,6,1,7,0.00
2012-1-5,67.0,40.3,23.2,30.8,22.1,15.3,75,52,23,30.50,30.21,18,2,21,0.00
2012-1-6,57.9,32.6,14.6,23.5,14.6,7.7,82,53,15,30.27,30.13,18,2,18,0.00
2012-1-7,44.0,26.9,13.0,22.3,13.6,6.2,82,59,33,30.63,30.26,15,3,16,0.00
2012-1-8,45.2,23.9,9.5,19.2,12.8,5.0,86,65,33,30.69,30.59,10,1,10,0.00
2012-1-9,50.6,25.1,11.1,20.2,13.6,6.7,92,65,29,30.69,30.47,7,1,7,0.00
2012-1-10,56.9,28.4,10.9,24.6,14.8,6.6,86,61,27,30.48,30.32,6,1,7,0.00
2012-1-11,47.4,24.8,8.7,20.4,13.7,4.4,85,65,33,30.54,30.36,12,1,12,0.00
2012-1-12,46.9,22.9,7.5,22.5,13.6,2.6,87,70,37,30.57,30.41,8,2,9,0.00
2012-1-13,49.7,22.2,6.9,19.9,11.2,2.4,86,66,29,30.66,30.47,6,1,6,0.00
2012-1-14,64.1,31.0,6.4,18.1,9.8,1.0,81,49,14,30.52,30.17,12,2,13,0.00
2012-1-15,54.4,44.6,27.1,16.1,10.3,4.8,46,25,17,30.17,29.74,48,13,49,0.00
2012-1-16,37.8,23.6,4.4,16.5,9.1,-1.5,80,55,35,30.41,29.77,40,4,41,0.00
2012-1-17,48.9,25.1,-0.7,9.8,2.1,-9.3,83,47,11,30.57,30.38,31,4,31,0.00
2012-1-18,59.4,49.5,42.0,18.2,5.0,-15.1,23,16,7,30.40,30.07,51,9,51,0.00
2012-1-19,56.7,48.2,37.8,33.8,17.5,3.3,65,33,12,30.09,29.80,55,12,56,0.00
2012-1-20,58.2,50.0,45.0,41.8,37.8,31.7,86,63,49,29.94,29.53,36,10,39,0.99
2012-1-21,45.0,35.5,22.9,41.1,25.7,16.7,88,69,42,30.14,29.41,51,7,55,0.92
2012-1-22,43.1,32.7,21.9,33.8,24.5,12.3,85,73,29,30.17,29.89,39,4,39,0.11
2012-1-23,41.4,34.2,31.9,33.6,31.4,29.4,96,89,72,29.91,29.73,15,3,16,0.59
2012-1-27,42.6,34.7,23.4,29.8,21.4,16.8,83,59,42,30.56,30.34,17,4,18,0.00
2012-1-28,44.9,28.0,15.9,25.4,19.3,12.5,89,72,40,30.72,30.54,7,1,8,0.00
2012-1-29,52.6,33.6,18.5,31.8,23.1,15.2,89,68,39,30.63,30.23,13,1,13,0.00
2012-1-30,59.2,43.9,31.7,31.2,24.7,13.5,78,48,26,30.25,29.95,13,2,13,0.00
2012-1-31,57.0,38.9,20.6,31.6,25.1,8.0,92,62,15,30.20,30.03,17,2,17,0.00
2012-2-1,50.9,40.9,25.2,32.7,22.6,12.5,83,51,26,30.33,30.07,41,7,45,0.01
2012-2-2,42.4,29.3,18.1,26.3,17.3,11.5,89,64,29,30.43,30.29,15,3,15,0.00
2012-2-3,43.3,25.1,12.9,18.6,14.6,9.2,87,67,33,30.42,30.29,7,1,8,0.00
2012-2-4,44.7,25.6,12.8,20.5,16.0,9.2,88,69,35,30.45,30.33,9,1,10,0.00
2012-2-5,48.3,27.2,14.2,22.6,16.9,10.7,88,69,31,30.47,30.28,7,1,8,0.00
2012-2-6,45.0,27.4,13.7,22.7,17.6,9.9,88,70,36,30.34,30.14,6,1,7,0.00
2012-2-7,39.3,32.4,24.4,31.4,26.4,19.3,88,79,69,30.23,30.07,9,1,11,0.00
2012-2-8,56.5,35.0,21.2,32.8,25.3,18.7,92,71,32,30.44,30.23,6,1,9,0.00
2012-2-9,64.3,39.8,21.7,31.5,25.8,17.8,92,62,28,30.49,30.27,13,1,14,0.00
2012-2-10,62.6,44.6,26.2,33.7,24.7,20.6,82,51,23,30.28,29.95,29,5,29,0.00
2012-2-11,49.7,39.6,28.7,33.2,27.8,20.5,78,63,46,30.01,29.88,15,2,16,0.00
2012-2-12,54.1,37.0,20.0,30.5,25.0,16.9,90,65,31,30.07,29.84,23,3,26,0.01
2012-2-13,42.7,37.7,31.5,29.5,21.2,10.9,79,53,29,29.93,29.73,29,6,29,0.00
2012-2-14,53.2,40.2,31.7,27.1,23.1,11.2,77,53,27,30.07,29.77,40,4,40,0.00
2012-2-15,39.3,27.9,20.7,26.8,20.0,15.7,90,73,40,30.42,29.79,31,4,36,0.01
2012-2-16,43.6,26.5,12.9,26.6,18.0,8.9,90,72,38,30.61,30.42,8,1,9,0.01
2012-2-17,57.4,33.3,17.0,31.2,21.9,13.1,94,67,31,30.50,30.22,20,2,21,0.00
2012-2-18,51.2,36.3,23.9,30.3,22.3,16.3,83,60,30,30.27,29.96,33,5,33,0.00
2012-2-19,46.4,33.2,23.5,22.0,17.9,12.3,75,55,29,30.14,29.99,16,2,20,0.00
2012-2-20,50.4,38.6,26.3,30.4,25.0,18.8,84,59,39,30.29,30.07,15,2,17,0.00
2012-2-21,57.4,39.3,24.2,36.4,29.3,20.9,89,70,44,30.48,30.26,9,2,9,0.00
2012-2-22,65.5,41.2,26.0,34.8,27.7,23.1,92,65,23,30.49,30.15,10,1,10,0.00
2012-2-23,53.6,37.0,22.2,30.3,24.6,17.5,86,63,36,30.33,30.18,16,3,16,0.00
2012-2-24,57.4,35.6,18.3,26.4,19.0,9.3,92,60,16,30.37,30.02,54,7,56,0.00
2012-2-25,51.7,45.8,29.6,19.6,7.9,-0.1,41,22,13,30.18,30.00,54,11,54,0.00
2012-2-26,44.6,32.2,16.0,16.7,10.7,5.3,65,42,27,30.19,29.87,19,2,20,0.00
2012-2-27,36.6,28.9,16.4,27.7,21.8,11.4,91,77,41,29.97,29.78,13,2,13,0.10
2012-2-28,43.7,27.2,6.0,25.3,16.4,2.5,89,67,40,30.27,29.97,43,5,55,0.04
2012-2-29,42.9,37.4,30.7,29.3,22.2,12.6,88,55,38,30.05,29.93,61,17,65,0.00
2012-3-1,44.1,36.7,29.8,25.1,18.9,13.2,77,49,33,30.31,29.89,61,13,67,0.01
2012-3-2,49.2,31.2,18.0,21.7,14.9,9.8,77,53,22,30.60,30.31,10,2,10,0.00
2012-3-3,61.4,36.2,18.4,27.6,19.7,14.4,86,57,21,30.66,30.44,9,1,10,0.00
2012-3-4,67.1,41.1,20.9,33.4,24.3,17.1,88,56,22,30.48,30.18,11,1,11,0.00
2012-3-5,65.5,48.8,28.0,28.8,16.3,4.2,74,35,12,30.20,29.79,51,9,52,0.00
2012-3-6,52.7,32.0,21.2,31.3,18.8,6.5,88,60,17,30.16,29.56,47,10,47,0.05
2012-3-7,40.4,24.6,10.1,18.5,10.9,4.2,83,58,31,30.64,30.16,10,2,11,0.00
2012-3-8,55.5,32.8,14.7,25.9,17.5,10.7,92,58,24,30.71,30.55,9,2,9,0.00
2012-3-9,68.2,40.3,17.2,28.3,20.7,13.0,86,52,18,30.59,30.20,16,2,16,0.00
2012-3-10,66.0,44.4,23.1,27.6,19.1,8.7,79,43,13,30.20,29.88,32,5,32,0.00
2012-3-11,53.9,47.9,39.6,30.5,24.2,13.9,52,39,28,29.89,29.70,42,9,48,0.00
2012-3-12,40.6,37.5,34.2,24.0,21.9,20.6,59,53,45,29.86,29.83,21,5,22,0.00
2012-3-22,51.4,51.0,50.5,26.3,25.5,23.5,38,37,35,29.67,29.66,45,27,46,0.00
2012-3-23,57.9,48.2,39.1,35.6,21.1,-1.8,83,38,12,29.84,29.66,52,20,53,0.03
2012-3-24,58.9,50.9,42.7,21.9,11.4,-99.9,37,21,12,29.80,29.58,43,-6,44,0.00
2012-3-25,51.9,43.3,34.3,28.4,20.6,13.4,72,41,23,29.70,29.54,36,8,39,0.00
2012-3-26,47.6,39.2,30.7,27.4,22.7,18.0,82,53,33,30.03,29.71,28,7,29,0.00
2012-3-27,56.2,43.9,31.4,31.4,25.0,17.9,76,48,28,30.01,29.75,60,14,60,0.04
2012-3-28,56.0,46.5,40.0,35.0,31.0,25.3,77,56,34,30.03,29.80,42,12,47,0.04
2012-3-29,62.4,49.5,37.3,36.4,28.7,20.4,64,46,26,30.07,29.90,25,7,33,0.00
2012-3-30,66.2,55.8,45.1,42.1,37.2,30.2,69,50,37,29.97,29.71,38,10,38,0.00
2012-3-31,55.4,44.0,30.1,37.7,27.9,16.0,92,56,32,29.80,29.46,56,14,66,0.05
2012-4-1,48.8,38.1,29.1,29.5,21.2,12.5,75,52,24,30.27,29.75,31,6,33,0.00
2012-4-2,54.4,37.5,21.3,30.0,23.6,17.2,86,60,31,30.38,30.15,11,2,11,0.00
2012-4-3,67.2,47.2,29.0,34.1,27.1,16.5,84,50,23,30.18,29.77,53,6,57,0.00
2012-4-4,51.7,42.4,29.2,32.5,18.3,3.0,81,38,24,29.98,29.79,47,16,49,0.03
2012-4-5,40.9,29.7,15.3,21.2,12.4,7.7,80,50,30,30.19,29.96,31,6,34,0.00
2012-4-6,52.7,33.1,16.6,22.4,14.1,7.5,80,50,22,30.34,30.18,14,2,18,0.00
2012-4-7,65.3,40.3,18.4,22.8,16.8,8.4,85,45,12,30.30,30.11,33,4,36,0.00
2012-4-8,68.4,46.3,20.9,23.5,16.8,8.5,74,35,13,30.19,30.00,31,5,31,0.00
2012-4-9,69.0,50.0,27.6,27.6,19.1,8.8,67,33,16,30.04,29.78,37,8,37,0.00
2012-4-10,65.5,51.7,33.7,26.2,17.5,10.2,56,28,12,29.83,29.52,51,11,52,0.00
2012-4-11,53.4,43.5,34.1,34.9,26.1,18.4,84,53,27,29.86,29.53,38,9,40,0.00
2012-4-12,48.1,39.6,32.0,30.5,24.2,15.9,93,56,34,29.91,29.83,52,14,54,0.00
2012-4-13,43.4,36.6,31.8,32.3,23.8,12.2,94,62,31,29.83,29.65,43,5,50,0.08
2012-4-14,51.7,38.9,27.6,32.9,27.8,21.7,85,66,43,30.15,29.73,23,4,26,0.00
2012-4-15,61.6,43.7,25.5,34.5,29.2,21.8,90,61,27,30.25,30.11,24,4,25,0.00
2012-4-16,67.3,48.3,29.4,40.3,32.9,25.9,90,59,30,30.22,30.09,26,3,28,0.00
2012-4-17,66.8,52.9,35.2,38.6,33.8,27.6,81,51,25,30.14,29.94,33,6,33,0.00
2012-4-18,65.0,55.1,46.3,40.2,34.2,23.8,60,46,34,30.01,29.92,26,4,28,0.00
2012-4-19,74.0,57.2,38.3,47.0,40.8,33.8,85,57,34,30.12,30.01,22,3,22,0.00
2012-4-20,79.3,59.4,40.0,49.3,43.4,36.8,92,60,28,30.13,29.92,19,2,19,0.00
2012-4-21,82.3,63.0,41.9,47.0,42.2,35.9,90,52,20,30.01,29.82,20,2,20,0.00
2012-4-22,80.5,65.5,47.3,47.7,39.6,31.1,59,41,19,29.91,29.72,30,4,32,0.00
2012-4-23,79.2,61.2,41.1,50.7,41.2,34.9,82,51,25,29.84,29.65,33,4,35,0.00
2012-4-24,76.3,61.9,46.1,49.8,40.2,25.8,85,50,22,29.86,29.75,35,5,35,0.00
2012-4-25,65.7,57.5,49.0,46.1,38.0,29.4,61,48,35,29.83,29.59,44,9,44,0.00
2012-4-26,59.0,49.1,34.3,42.9,33.8,20.1,81,56,36,30.06,29.56,49,9,50,0.01
2012-4-27,63.2,45.4,25.7,38.4,27.4,19.6,85,54,20,30.27,30.06,14,3,17,0.00
2012-4-28,65.9,50.8,31.9,33.9,28.2,19.6,70,45,20,30.15,29.91,10,2,11,0.00
2012-4-29,75.0,53.8,33.2,44.5,34.9,27.1,86,53,27,30.05,29.85,24,3,24,0.00
2012-4-30,74.8,58.9,41.3,41.2,36.2,25.7,76,46,23,29.92,29.72,41,6,41,0.00
2012-5-1,71.5,57.3,42.6,40.5,29.7,7.3,66,37,12,29.74,29.61,32,5,33,0.00
2012-5-2,68.5,51.0,28.5,33.8,21.5,13.4,72,34,17,29.84,29.73,32,6,34,0.00
2012-5-3,60.6,54.3,41.4,34.7,28.3,14.6,66,38,22,29.91,29.71,44,10,49,0.00
2012-5-4,60.9,48.4,31.1,35.6,25.8,16.8,79,45,20,30.18,29.90,38,7,43,0.00
2012-5-5,59.0,44.4,28.5,32.0,26.2,20.6,86,52,25,30.28,30.16,18,4,20,0.00
2012-5-6,64.7,46.6,26.2,29.7,22.3,15.4,76,42,21,30.31,30.15,19,4,20,0.00
2012-5-7,68.7,49.2,28.7,32.3,23.0,12.7,76,40,16,30.27,30.07,17,3,18,0.00
2012-5-8,80.3,54.9,28.9,40.2,27.2,16.1,75,39,14,30.16,29.93,11,2,12,0.00
2012-5-9,83.8,59.9,35.6,43.1,33.6,23.4,78,41,15,30.00,29.75,36,4,37,0.00
2012-5-10,72.5,57.2,40.7,44.7,31.9,21.6,59,39,25,29.92,29.79,16,4,16,0.00
2012-5-11,74.7,54.0,32.1,41.7,27.5,17.4,80,40,17,30.05,29.91,10,2,11,0.00
2012-5-12,79.7,56.7,34.4,40.6,29.3,21.2,79,40,14,30.15,29.99,11,2,11,0.00
2012-5-13,81.5,59.0,34.6,46.9,32.5,19.6,74,41,14,30.15,29.88,12,2,12,0.00
2012-5-14,77.0,58.7,39.0,45.1,35.3,19.4,79,44,20,29.91,29.72,27,5,27,0.00
2012-5-15,81.0,61.0,38.4,48.2,36.6,23.8,70,42,24,29.91,29.79,33,4,33,0.00
2012-5-16,81.3,64.3,43.3,50.1,38.8,22.4,82,44,18,29.92,29.75,28,4,32,0.00
2012-5-17,72.3,59.5,44.7,42.4,28.2,12.9,64,32,14,29.81,29.57,38,8,38,0.00
2012-5-18,72.4,55.7,38.8,41.6,33.8,21.5,80,47,22,29.91,29.74,13,2,13,0.00
2012-5-19,78.5,51.9,36.2,44.6,19.7,-99.9,79,41,23,29.97,29.84,25,-111,25,0.00
2012-5-20,84.8,56.4,41.0,49.9,23.5,-99.9,82,41,23,29.97,29.77,21,-126,21,0.00
2012-5-21,81.9,65.2,48.8,46.6,36.4,15.0,68,37,16,29.90,29.79,38,6,41,0.00
2012-5-22,73.8,61.8,46.1,39.9,25.4,-99.9,56,28,13,29.89,29.74,44,-37,44,0.00
2012-5-23,69.5,55.4,37.4,39.9,33.4,26.8,73,46,23,29.84,29.71,26,6,26,0.00
2012-5-24,69.1,51.4,34.1,38.2,28.4,17.1,83,46,16,29.81,29.49,45,7,46,0.00
2012-5-25,47.8,43.2,38.1,34.4,29.0,19.5,78,58,35,29.73,29.41,24,5,24,0.00
2012-5-26,54.4,45.2,34.8,36.8,32.7,27.8,88,63,39,30.04,29.72,23,5,24,0.02
2012-5-27,67.3,50.3,30.1,40.7,32.2,16.0,70,51,32,30.12,29.97,25,3,25,0.00
2012-5-28,65.3,44.4,33.2,39.9,33.9,29.3,89,69,33,30.02,29.86,17,1,17,0.00
2012-5-29,75.0,57.2,36.1,47.3,37.8,28.3,80,51,29,29.99,29.87,28,4,28,0.00
2012-5-30,84.0,63.7,40.2,49.4,41.3,35.4,88,49,23,30.06,29.90,17,2,18,0.00
2012-5-31,89.0,69.5,50.3,50.2,40.8,33.6,58,38,17,30.02,29.77,16,2,16,0.00
2012-6-1,88.5,72.3,55.7,54.0,46.7,39.0,58,42,23,29.81,29.57,28,3,29,0.00
2012-6-2,84.3,61.9,53.1,49.5,23.5,-99.9,67,31,23,29.71,29.61,21,-124,23,0.00
2012-6-3,86.8,69.1,47.6,52.8,39.2,-99.9,66,36,23,29.74,29.61,24,-21,24,0.00
2012-6-4,68.2,56.0,42.1,47.5,38.1,21.1,79,52,38,29.81,29.53,53,15,53,0.12
2012-6-5,43.4,39.9,36.6,24.9,22.2,19.1,59,49,39,29.91,29.81,24,6,29,0.00
2012-6-14,60.0,59.1,57.9,45.7,43.4,41.4,62,56,54,29.68,29.68,1,0,2,0.00
2012-6-15,84.5,54.0,52.4,51.1,2.2,-99.9,76,23,21,29.80,29.66,17,-266,17,0.00
2012-6-16,90.5,72.8,53.1,52.9,38.9,29.3,65,31,19,29.94,29.73,13,2,13,0.00
2012-6-17,92.4,71.7,55.7,54.8,40.9,31.3,51,34,22,29.82,29.65,30,3,33,0.00
2012-6-22,-200.0,0.0,200.0,-99.9,-99.9,-99.9,0,0,100,29.57,29.56,0,-999,0,0.00
2012-6-23,68.5,32.9,60.2,38.9,-32.7,-99.9,38,15,26,29.62,28.34,46,-489,47,0.00
2012-6-24,75.3,48.7,60.1,39.8,-7.5,-99.9,37,18,20,29.72,29.61,38,-292,42,0.00
2012-6-25,73.5,64.0,51.9,41.2,32.7,25.5,47,31,23,29.76,29.62,45,11,49,0.01
2012-6-26,54.5,52.3,49.3,33.1,31.6,26.8,49,45,39,29.79,29.72,13,3,14,0.00
2012-6-28,54.7,54.6,54.6,38.8,38.5,38.3,55,54,54,29.88,29.87,2,1,5,0.00
2012-6-29,82.3,63.5,37.9,50.0,41.1,31.1,78,48,21,29.98,29.81,24,4,24,0.00
2012-6-30,83.0,64.3,43.2,51.3,44.5,39.1,88,53,26,29.89,29.71,28,3,28,0.00
2012-7-1,82.5,64.9,42.4,54.2,46.2,37.1,85,55,28,29.84,29.68,27,4,27,0.00
2012-7-2,88.2,68.6,45.8,56.5,49.2,42.0,90,55,27,29.80,29.60,25,3,27,0.00
2012-7-3,85.7,68.2,44.6,54.9,48.0,39.4,85,52,32,29.77,29.61,25,3,25,0.00
2012-7-4,86.0,68.6,46.5,52.1,46.0,38.3,85,49,25,29.74,29.59,24,3,24,0.00
2012-7-5,84.7,67.7,43.9,50.7,43.7,35.8,76,45,22,29.83,29.70,23,3,23,0.00
2012-7-6,86.1,68.7,45.0,50.5,45.3,38.3,83,48,20,29.90,29.79,20,3,20,0.00
2012-7-7,90.3,69.9,43.4,47.9,43.3,34.6,82,44,19,29.96,29.78,18,3,18,0.00
2012-7-8,92.0,71.2,46.1,52.6,46.5,40.9,83,46,21,29.92,29.76,21,3,22,0.00
2012-7-9,63.6,57.9,53.2,47.1,45.3,42.7,73,63,53,29.87,29.86,5,0,5,0.00
2012-7-12,74.1,71.3,68.2,49.5,47.5,46.6,50,43,38,29.73,29.72,6,0,6,0.00
2012-7-13,93.0,73.7,57.8,51.9,46.0,37.0,66,41,21,29.75,29.59,31,4,31,0.00
2012-7-14,87.7,78.1,63.3,51.4,45.7,38.9,48,32,23,29.79,29.66,25,6,25,0.00
2012-7-15,86.2,68.2,42.5,47.8,41.2,34.2,76,41,21,29.85,29.64,24,4,24,0.00
2012-7-16,81.0,67.6,46.7,46.6,37.6,28.3,70,37,19,29.71,29.57,38,7,38,0.00
2012-7-29,89.8,76.2,55.2,50.2,45.1,36.4,56,34,24,29.86,29.76,21,4,25,0.00
2012-7-30,89.5,57.6,40.9,42.1,35.9,28.9,73,50,16,29.94,29.85,10,1,10,0.00
2012-8-9,66.1,64.4,62.7,47.4,46.4,45.0,56,52,49,29.81,29.80,3,0,3,0.03
2012-8-10,96.4,74.1,52.5,54.4,47.4,42.9,73,44,20,29.81,29.63,32,3,34,0.00
2012-8-11,94.4,72.5,59.0,60.6,54.3,46.4,77,56,20,29.83,29.69,32,4,34,0.36
2012-8-12,95.3,75.3,51.3,60.2,52.9,46.2,87,49,22,29.87,29.77,32,4,32,0.00
2012-8-13,86.5,66.9,59.9,57.7,55.0,52.0,80,67,31,29.86,29.79,7,1,7,0.00
2012-8-23,63.0,60.6,58.8,43.1,42.5,40.8,56,51,47,29.79,29.78,5,1,5,0.15
2012-8-24,91.7,69.0,45.7,52.2,45.0,39.3,82,47,23,29.87,29.66,20,2,22,0.00
2012-8-25,81.5,59.8,45.4,49.8,44.1,39.4,82,59,30,29.78,29.63,13,2,15,0.00
2012-8-26,83.8,71.5,55.5,47.3,37.6,25.0,61,33,14,29.77,29.64,37,6,37,0.00
2012-8-31,50.7,50.3,49.8,28.8,27.8,26.1,43,41,39,29.80,29.79,5,0,5,0.00
2012-9-1,82.8,58.7,30.3,43.3,32.2,21.4,74,41,16,29.99,29.80,19,2,22,0.00
2012-9-2,86.1,61.5,35.5,43.6,36.5,29.8,83,47,15,30.04,29.85,16,2,16,0.00
2012-9-3,88.1,63.3,37.7,45.8,37.8,31.1,80,45,17,30.00,29.83,24,3,25,0.00
2012-9-4,88.4,63.7,36.3,43.3,36.1,27.0,77,41,15,30.04,29.87,25,3,25,0.00
2012-9-5,81.0,64.0,41.4,51.6,43.6,33.6,77,50,30,29.98,29.83,33,3,34,0.00
2012-9-6,79.6,64.9,53.1,57.4,51.9,47.4,92,65,37,29.93,29.82,13,2,15,0.18
2012-9-7,85.5,66.0,47.3,52.7,47.9,43.3,88,57,27,30.05,29.90,18,2,18,0.00
2012-9-8,91.7,67.5,44.9,51.9,46.1,39.9,85,52,20,30.03,29.80,27,2,28,0.00
2012-9-9,87.8,71.0,49.9,52.8,46.6,42.2,76,46,25,29.87,29.70,30,4,30,0.00
2012-9-10,87.8,70.9,53.2,51.2,43.9,36.6,58,40,20,29.78,29.64,25,2,26,0.00
2012-9-11,84.5,62.1,39.7,48.7,41.3,34.3,84,51,22,29.95,29.75,12,1,14,0.00
2012-9-12,84.5,60.1,36.7,40.9,35.1,26.5,84,46,17,30.14,29.95,17,2,18,0.00
2012-9-13,87.2,60.7,33.8,42.0,33.2,26.3,78,42,15,30.24,30.03,13,2,13,0.00
2012-9-14,88.3,66.5,39.7,43.9,34.3,19.6,74,33,16,30.13,29.93,27,2,28,0.00
2012-9-15,84.5,65.7,41.3,46.2,38.6,32.4,73,41,21,30.07,29.93,31,4,31,0.00
2012-9-16,83.7,63.6,41.8,45.2,37.7,32.1,71,43,20,30.05,29.88,21,2,21,0.00
2012-9-17,84.3,62.3,36.6,43.2,33.9,26.0,82,42,15,30.06,29.90,12,1,13,0.00
2012-9-18,81.3,59.1,48.4,41.9,30.4,25.0,46,34,19,30.04,29.97,7,0,7,0.00
2012-10-4,47.4,45.6,43.1,32.3,31.1,29.9,60,57,53,30.06,30.04,8,1,8,0.00
2012-10-5,76.5,54.2,34.2,40.9,33.9,26.4,77,50,21,30.09,29.94,13,1,13,0.00
2012-10-6,73.0,50.5,29.9,41.7,32.5,24.5,85,56,21,30.08,29.91,15,2,15,0.00
2012-10-7,69.8,49.4,26.2,33.9,26.6,19.4,86,48,19,30.09,29.91,10,1,10,0.00
2012-10-8,72.2,54.9,39.5,34.6,28.9,19.5,61,39,18,29.98,29.80,29,3,29,0.00
2012-10-9,66.5,49.0,28.7,39.3,30.6,22.3,82,52,27,29.99,29.85,11,2,12,0.00
2012-10-10,72.8,52.3,31.4,38.4,32.9,24.9,83,51,24,29.96,29.77,11,2,12,0.00
2012-10-11,51.6,40.6,35.6,36.9,33.2,29.9,83,75,56,29.87,29.82,6,1,6,0.00
2012-10-18,43.2,40.8,39.2,30.8,29.9,28.8,68,65,61,30.16,30.14,4,2,5,0.17
2012-10-19,78.9,53.8,30.8,39.9,31.8,24.4,81,49,20,30.15,29.88,23,3,23,0.00
2012-10-20,73.3,61.5,50.2,37.7,31.5,23.8,48,33,20,29.88,29.59,24,4,25,0.00
2012-10-21,64.3,53.9,46.1,30.9,24.8,6.8,48,34,13,29.69,29.62,36,7,37,0.00
2012-10-22,51.9,44.2,40.0,39.8,28.0,12.2,83,54,31,29.77,29.53,45,13,45,0.00
2012-10-23,49.4,38.4,25.8,33.7,26.6,19.0,87,65,35,30.00,29.75,22,4,26,0.00
2012-10-24,28.6,27.5,26.8,21.1,20.4,19.1,77,74,72,30.00,29.99,4,2,5,0.00
2012-11-1,33.9,32.0,29.4,28.0,26.1,23.1,81,79,75,30.04,30.02,3,0,3,0.00
2012-11-2,62.7,38.9,19.8,36.0,27.3,16.5,89,67,29,30.20,30.04,7,1,7,0.00
2012-11-3,69.0,40.7,21.7,31.9,24.6,17.3,87,59,18,30.34,30.20,6,1,7,0.00
2012-11-4,69.2,43.0,23.5,34.5,26.9,18.1,84,57,25,30.47,30.34,12,2,13,0.00
2012-11-5,70.3,43.5,23.6,38.5,29.2,18.5,87,62,27,30.51,30.29,7,1,7,0.00
2012-11-6,74.6,43.3,22.2,40.1,29.1,17.8,88,62,26,30.37,30.15,7,1,7,0.00
2012-11-7,72.2,50.8,28.6,36.9,28.4,22.3,80,47,21,30.21,29.82,29,4,29,0.00
2012-11-8,56.2,43.9,27.8,36.7,26.7,7.2,90,55,19,29.83,29.55,60,14,60,0.00
2012-11-9,36.6,28.4,19.1,26.3,18.9,12.9,85,68,45,29.98,29.74,17,3,19,0.00
2012-11-10,35.9,26.3,17.0,25.5,19.5,12.7,89,75,58,30.37,29.97,17,1,17,0.01
2012-11-11,39.7,22.7,8.9,22.4,14.7,5.1,92,73,44,30.60,30.37,9,1,9,0.00
2012-11-12,49.3,29.8,15.0,32.3,21.6,10.8,86,73,47,30.60,30.40,10,1,11,0.00
2012-11-13,57.6,33.0,15.3,34.8,24.0,11.9,88,72,38,30.49,30.28,6,1,7,0.00
2012-11-14,62.2,35.0,20.0,33.9,24.3,16.5,89,69,32,30.35,30.19,8,1,9,0.00
2012-11-15,56.2,37.5,15.5,32.7,23.9,10.9,86,61,33,30.30,30.09,12,1,12,0.00
2012-11-16,54.2,44.0,36.7,37.9,32.5,24.1,76,64,51,30.10,29.93,10,1,11,0.00
2012-11-17,56.4,45.9,37.6,41.9,36.2,25.7,89,70,41,29.94,29.78,37,7,40,0.00
2012-11-18,53.7,45.9,39.7,36.7,32.9,28.8,79,61,40,30.11,29.85,33,9,41,0.00
2012-11-19,60.4,45.5,35.9,35.3,31.7,28.8,77,60,37,30.21,30.10,22,2,24,0.00
2012-11-20,61.4,51.8,39.5,33.9,28.9,19.0,67,42,30,30.11,29.88,34,10,35,0.00
2012-11-21,59.0,48.7,25.2,39.9,31.5,18.8,81,53,29,30.21,29.80,49,9,49,0.00
2012-11-22,54.1,32.5,19.0,30.9,23.6,14.5,87,72,37,30.53,30.20,11,1,11,0.00
2012-11-23,58.4,32.7,16.2,33.8,23.8,12.0,88,72,36,30.57,30.39,5,1,6,0.00
2012-11-24,66.8,36.0,16.7,33.3,23.0,12.7,86,64,25,30.45,30.17,10,1,11,0.00
2012-11-25,58.4,34.7,19.0,26.0,20.6,13.2,86,60,27,30.23,30.06,12,2,12,0.00
2012-11-26,55.4,29.2,12.5,29.8,19.0,8.3,86,69,32,30.34,30.21,6,1,6,0.00
2012-11-27,46.3,30.1,14.6,28.5,20.6,9.7,89,69,43,30.38,30.25,14,1,14,0.00
2012-11-28,51.1,37.3,20.6,39.1,28.9,15.2,86,73,48,30.26,29.97,45,7,45,0.00
2012-11-29,56.9,50.7,47.4,35.7,30.5,18.7,61,47,23,30.06,29.66,54,15,58,0.00
2012-11-30,52.9,47.6,41.5,37.9,35.0,26.0,86,63,38,29.87,29.66,55,17,60,0.04
2012-12-1,61.4,54.9,48.6,40.4,35.4,27.7,66,48,33,29.87,29.63,58,8,60,0.14
2012-12-2,58.2,48.9,38.6,41.1,36.2,23.0,87,62,41,29.80,29.50,62,18,66,2.26
2012-12-14,35.8,29.1,22.6,25.0,16.8,10.1,89,60,50,30.09,29.90,6,1,6,0.01
2012-12-15,26.2,21.8,16.9,10.9,7.9,4.2,58,54,52,30.12,30.09,0,0,1,0.00
2012-12-16,41.1,36.0,31.9,27.0,23.8,20.4,63,61,56,30.09,30.05,1,0,2,0.05
2012-12-27,35.1,24.8,12.6,23.6,17.7,8.9,88,75,53,30.33,30.18,6,1,6,0.01
2012-12-28,26.0,19.2,7.8,21.0,13.9,4.2,92,80,66,30.38,30.30,6,1,6,0.00
2012-12-29,28.6,24.3,22.1,22.4,20.5,19.1,89,85,77,30.31,30.15,5,0,6,0.02
2012-12-30,29.6,24.0,12.8,22.8,19.4,8.9,90,82,73,30.38,30.14,13,3,13,0.05
2012-12-31,26.2,16.8,6.8,17.0,11.2,1.8,90,79,63,30.58,30.38,7,1,7,0.00
2013-1-1,25.2,14.2,5.0,15.6,9.5,1.3,90,81,63,30.77,30.48,7,1,7,0.00